VOE1817 LEMD-LIMJ

Flight info

Callsign VOE1817
Flight time 1h 28m
Altitude 36000
Route PINAR DCT SEGRE DCT YAKXU DCT RONNY DCT TOPTU DCT TOU DCT GAI DCT MEN DCT NINUN DCT LATAM DCT ROMAM DCT ETIDO DCT NEDRU DCT RILIP DCT EMMEF DCT LAPRI DCT MOGBO DCT TOP M730 TESTO
Aircraft A320/M-SDFGHIJ1RWY/LB1

Departure

Time 2026-05-05 13:35
Airport Adolfo Suárez Madrid–Barajas Airport (LEMD)

Arrival

Time 2026-05-05 15:03
Airport Genoa Cristoforo Colombo Airport (LIMJ)
Time Latitude Longitude Altitude Speed Heading
2026-05-05 13:19 40.49310 -3.58965 2022 ft 0 kts 271°
2026-05-05 13:24 40.49310 -3.58959 2022 ft 4 kts 271°
2026-05-05 13:24 40.49310 -3.58923 2027 ft 4 kts 266°
2026-05-05 13:25 40.49315 -3.58891 2033 ft 4 kts 228°
2026-05-05 13:25 40.49324 -3.58882 2033 ft 0 kts 180°
2026-05-05 13:27 40.49315 -3.58882 2033 ft 3 kts 180°
2026-05-05 13:27 40.49286 -3.58882 2025 ft 6 kts 180°
2026-05-05 13:27 40.49243 -3.58862 2026 ft 8 kts 111°
2026-05-05 13:28 40.49240 -3.58777 2025 ft 10 kts 89°
2026-05-05 13:28 40.49241 -3.58696 2026 ft 8 kts 90°
2026-05-05 13:28 40.49241 -3.58627 2028 ft 9 kts 90°
2026-05-05 13:28 40.49241 -3.58526 2018 ft 13 kts 90°
2026-05-05 13:29 40.49242 -3.58405 2014 ft 12 kts 90°
2026-05-05 13:29 40.49242 -3.58388 2012 ft 0 kts 90°
2026-05-05 13:29 40.49242 -3.58387 2012 ft 0 kts 90°
2026-05-05 13:29 40.49242 -3.58384 2014 ft 2 kts 90°
2026-05-05 13:30 40.49241 -3.58331 2012 ft 9 kts 90°
2026-05-05 13:30 40.49243 -3.58218 2008 ft 15 kts 90°
2026-05-05 13:30 40.49243 -3.58082 2004 ft 15 kts 89°
2026-05-05 13:30 40.49243 -3.57937 1999 ft 17 kts 90°
2026-05-05 13:31 40.49243 -3.57782 1993 ft 16 kts 90°
2026-05-05 13:31 40.49244 -3.57670 1989 ft 3 kts 89°
2026-05-05 13:31 40.49245 -3.57655 1988 ft 3 kts 88°
2026-05-05 13:31 40.49248 -3.57626 1987 ft 4 kts 78°
2026-05-05 13:32 40.49257 -3.57591 1987 ft 4 kts 69°
2026-05-05 13:32 40.49262 -3.57575 1986 ft 1 kts 63°
2026-05-05 13:32 40.49265 -3.57569 1987 ft 0 kts 63°
2026-05-05 13:33 40.49266 -3.57566 1987 ft 1 kts 63°
2026-05-05 13:33 40.49273 -3.57548 1987 ft 4 kts 63°
2026-05-05 13:33 40.49287 -3.57512 1986 ft 5 kts 63°
2026-05-05 13:34 40.49311 -3.57461 1984 ft 8 kts 45°
2026-05-05 13:34 40.49351 -3.57451 1983 ft 0 kts 359°
2026-05-05 13:34 40.49599 -3.57455 1985 ft 71 kts 360°
2026-05-05 13:35 40.50307 -3.57459 1990 ft 130 kts 359°
2026-05-05 13:35 40.51383 -3.57467 2008 ft 176 kts 355°
2026-05-05 13:35 40.52583 -3.57450 2707 ft 171 kts 354°
2026-05-05 13:35 40.53773 -3.57454 3438 ft 171 kts 355°
2026-05-05 13:36 40.54985 -3.57462 3947 ft 181 kts 359°
2026-05-05 13:36 40.56294 -3.57019 4134 ft 208 kts 12°
2026-05-05 13:36 40.57736 -3.56465 4415 ft 228 kts 11°
2026-05-05 13:36 40.59296 -3.55886 5066 ft 235 kts 10°
2026-05-05 13:37 40.60878 -3.55300 5855 ft 237 kts 11°
2026-05-05 13:37 40.62479 -3.54706 6593 ft 240 kts 11°
2026-05-05 13:37 40.64113 -3.54229 7329 ft 240 kts
2026-05-05 13:37 40.65783 -3.54082 8028 ft 242 kts 358°
2026-05-05 13:38 40.67480 -3.53937 8726 ft 247 kts
2026-05-05 13:38 40.69186 -3.53580 9469 ft 253 kts 16°
2026-05-05 13:38 40.70763 -3.52463 10084 ft 267 kts 36°
2026-05-05 13:38 40.72050 -3.50531 10311 ft 294 kts 54°
2026-05-05 13:39 40.73238 -3.48211 10504 ft 317 kts 53°
2026-05-05 13:39 40.74520 -3.45715 10714 ft 339 kts 53°
2026-05-05 13:39 40.75871 -3.43093 11240 ft 349 kts 54°
2026-05-05 13:39 40.77243 -3.40436 11900 ft 353 kts 54°
2026-05-05 13:40 40.78634 -3.37743 12590 ft 357 kts 54°
2026-05-05 13:40 40.80043 -3.35020 13274 ft 361 kts 54°
2026-05-05 13:40 40.81463 -3.32271 13921 ft 365 kts 54°
2026-05-05 13:40 40.82903 -3.29485 14499 ft 369 kts 54°
2026-05-05 13:41 40.84342 -3.26666 15085 ft 373 kts 57°
2026-05-05 13:41 40.85514 -3.23590 15662 ft 379 kts 68°
2026-05-05 13:41 40.86278 -3.20241 16245 ft 383 kts 75°
2026-05-05 13:41 40.86945 -3.16812 16840 ft 386 kts 75°
2026-05-05 13:42 40.87620 -3.13359 17413 ft 390 kts 74°
2026-05-05 13:42 40.88308 -3.09876 17969 ft 394 kts 74°
2026-05-05 13:42 40.89004 -3.06361 18487 ft 398 kts 74°
2026-05-05 13:42 40.89704 -3.02809 18981 ft 401 kts 75°
2026-05-05 13:43 40.90405 -2.99233 19492 ft 404 kts 75°
2026-05-05 13:43 40.91111 -2.95622 19989 ft 407 kts 75°
2026-05-05 13:43 40.91820 -2.91983 20502 ft 410 kts 75°
2026-05-05 13:43 40.92536 -2.88317 21015 ft 413 kts 75°
2026-05-05 13:44 40.93259 -2.84626 21498 ft 417 kts 75°
2026-05-05 13:44 40.93989 -2.80898 21996 ft 420 kts 75°
2026-05-05 13:44 40.94720 -2.77135 22461 ft 424 kts 75°
2026-05-05 13:44 40.95454 -2.73347 22938 ft 427 kts 75°
2026-05-05 13:45 40.96189 -2.69533 23409 ft 430 kts 75°
2026-05-05 13:45 40.96929 -2.65685 23764 ft 433 kts 76°
2026-05-05 13:45 40.97675 -2.61794 24084 ft 438 kts 76°
2026-05-05 13:45 40.98424 -2.57873 24401 ft 442 kts 76°
2026-05-05 13:46 40.99179 -2.53912 24734 ft 446 kts 76°
2026-05-05 13:46 40.99941 -2.49915 25057 ft 449 kts 76°
2026-05-05 13:46 41.00709 -2.45894 25372 ft 452 kts 75°
2026-05-05 13:46 41.01744 -2.41951 25669 ft 455 kts 65°
2026-05-05 13:47 41.03255 -2.38277 25954 ft 457 kts 54°
2026-05-05 13:47 41.05213 -2.34940 26255 ft 458 kts 44°
2026-05-05 13:47 41.07541 -2.32071 26538 ft 458 kts 35°
2026-05-05 13:47 41.10037 -2.29427 26829 ft 461 kts 35°
2026-05-05 13:48 41.12553 -2.26759 27059 ft 466 kts 36°
2026-05-05 13:48 41.15098 -2.24055 27310 ft 470 kts 36°
2026-05-05 13:48 41.17657 -2.21330 27568 ft 473 kts 36°
2026-05-05 13:48 41.20228 -2.18587 27845 ft 476 kts 36°
2026-05-05 13:49 41.22820 -2.15820 28116 ft 479 kts 36°
2026-05-05 13:49 41.25430 -2.13035 28377 ft 482 kts 36°
2026-05-05 13:49 41.28051 -2.10238 28633 ft 485 kts 36°
2026-05-05 13:49 41.30653 -2.07459 28891 ft 488 kts 36°
2026-05-05 13:50 41.33308 -2.04618 29189 ft 490 kts 36°
2026-05-05 13:50 41.35960 -2.01775 29532 ft 490 kts 36°
2026-05-05 13:50 41.38620 -1.98921 29824 ft 492 kts 36°
2026-05-05 13:50 41.41289 -1.96054 30048 ft 494 kts 36°
2026-05-05 13:51 41.43973 -1.93165 30250 ft 496 kts 36°
2026-05-05 13:51 41.46657 -1.90271 30431 ft 498 kts 36°
2026-05-05 13:51 41.49362 -1.87351 30557 ft 502 kts 36°
2026-05-05 13:51 41.52083 -1.84408 30723 ft 504 kts 36°
2026-05-05 13:52 41.54804 -1.81463 30979 ft 504 kts 36°
2026-05-05 13:52 41.57517 -1.78527 31356 ft 501 kts 36°
2026-05-05 13:52 41.60222 -1.75602 31676 ft 499 kts 36°
2026-05-05 13:52 41.62921 -1.72684 31985 ft 498 kts 36°
2026-05-05 13:53 41.65609 -1.69771 32276 ft 497 kts 36°
2026-05-05 13:53 41.68295 -1.66861 32567 ft 497 kts 36°
2026-05-05 13:53 41.70973 -1.63953 32839 ft 497 kts 36°
2026-05-05 13:53 41.73656 -1.61036 33095 ft 496 kts 36°
2026-05-05 13:54 41.76337 -1.58115 33370 ft 496 kts 36°
2026-05-05 13:54 41.79005 -1.55202 33717 ft 494 kts 37°
2026-05-05 13:54 41.81668 -1.52290 33984 ft 494 kts 37°
2026-05-05 13:54 41.84330 -1.49371 34119 ft 496 kts 37°
2026-05-05 13:55 41.87007 -1.46438 34291 ft 497 kts 37°
2026-05-05 13:55 41.89691 -1.43502 34490 ft 497 kts 37°
2026-05-05 13:55 41.92366 -1.40569 34693 ft 497 kts 37°
2026-05-05 13:55 41.95042 -1.37627 34892 ft 497 kts 37°
2026-05-05 13:56 41.97717 -1.34686 35100 ft 496 kts 37°
2026-05-05 13:56 42.00384 -1.31749 35353 ft 495 kts 37°
2026-05-05 13:56 42.03043 -1.28817 35574 ft 494 kts 37°
2026-05-05 13:56 42.05695 -1.25889 35776 ft 493 kts 37°
2026-05-05 13:57 42.08342 -1.22968 35927 ft 493 kts 37°
2026-05-05 13:57 42.11005 -1.20026 35956 ft 496 kts 37°
2026-05-05 13:57 42.16373 -1.14090 35932 ft 503 kts 37°
2026-05-05 13:58 42.21811 -1.08055 35949 ft 509 kts 38°
2026-05-05 13:58 42.27285 -1.01964 35947 ft 512 kts 38°
2026-05-05 13:59 42.35541 -0.92748 35948 ft 514 kts 38°
2026-05-05 14:00 42.42774 -0.84406 35962 ft 514 kts 45°
2026-05-05 14:00 42.47987 -0.75556 35943 ft 515 kts 52°
2026-05-05 14:01 42.52367 -0.67867 35941 ft 516 kts 52°
2026-05-05 14:01 42.56724 -0.60204 35946 ft 517 kts 52°
2026-05-05 14:02 42.61098 -0.52468 35956 ft 517 kts 52°
2026-05-05 14:02 42.65458 -0.44708 35976 ft 517 kts 52°
2026-05-05 14:03 42.69812 -0.36957 35973 ft 515 kts 52°
2026-05-05 14:03 42.74165 -0.29210 35969 ft 515 kts 52°
2026-05-05 14:04 42.78496 -0.21462 35970 ft 515 kts 52°
2026-05-05 14:04 42.82890 -0.13764 35966 ft 514 kts 50°
2026-05-05 14:05 42.87459 -0.06265 35975 ft 514 kts 49°
2026-05-05 14:05 42.92055 0.01210 35955 ft 515 kts 50°
2026-05-05 14:06 42.96602 0.08764 35948 ft 515 kts 51°
2026-05-05 14:06 43.01119 0.16387 35947 ft 516 kts 51°
2026-05-05 14:07 43.05632 0.24006 35978 ft 516 kts 51°
2026-05-05 14:07 43.10153 0.31619 35983 ft 515 kts 51°
2026-05-05 14:08 43.14642 0.39185 35973 ft 516 kts 51°
2026-05-05 14:08 43.19161 0.46832 35966 ft 516 kts 51°
2026-05-05 14:09 43.23672 0.54489 35982 ft 517 kts 51°
2026-05-05 14:09 43.28183 0.62174 35984 ft 516 kts 51°
2026-05-05 14:10 43.32678 0.69846 35984 ft 516 kts 51°
2026-05-05 14:10 43.37168 0.77526 35960 ft 515 kts 51°
2026-05-05 14:11 43.41652 0.85222 35952 ft 516 kts 51°
2026-05-05 14:11 43.46137 0.92922 35971 ft 515 kts 51°
2026-05-05 14:12 43.50604 1.00617 35972 ft 514 kts 51°
2026-05-05 14:12 43.55059 1.08329 35963 ft 514 kts 51°
2026-05-05 14:13 43.59510 1.16047 35937 ft 514 kts 51°
2026-05-05 14:13 43.63957 1.23789 35960 ft 515 kts 52°
2026-05-05 14:14 43.68402 1.31540 35965 ft 515 kts 52°
2026-05-05 14:14 43.72723 1.39422 35967 ft 514 kts 54°
2026-05-05 14:15 43.76914 1.47423 35964 ft 514 kts 54°
2026-05-05 14:15 43.81120 1.55436 35936 ft 514 kts 54°
2026-05-05 14:16 43.85350 1.63405 35955 ft 514 kts 54°
2026-05-05 14:16 43.89580 1.71383 35950 ft 513 kts 54°
2026-05-05 14:17 43.93797 1.79364 35945 ft 513 kts 54°
2026-05-05 14:17 43.97973 1.87383 35945 ft 512 kts 55°
2026-05-05 14:18 44.01343 1.94140 35934 ft 512 kts 56°
2026-05-05 14:18 44.05352 2.02326 35936 ft 512 kts 56°
2026-05-05 14:19 44.10029 2.11818 35945 ft 512 kts 56°
2026-05-05 14:19 44.13415 2.18641 35944 ft 512 kts 56°
2026-05-05 14:20 44.17459 2.26808 35946 ft 512 kts 56°
2026-05-05 14:20 44.21488 2.34984 35932 ft 513 kts 56°
2026-05-05 14:21 44.25514 2.43205 35934 ft 513 kts 56°
2026-05-05 14:21 44.29532 2.51435 35937 ft 513 kts 56°
2026-05-05 14:22 44.33559 2.59685 35954 ft 514 kts 56°
2026-05-05 14:22 44.37547 2.67893 35935 ft 514 kts 57°
2026-05-05 14:23 44.41564 2.76178 35944 ft 515 kts 57°
2026-05-05 14:23 44.45582 2.84475 35935 ft 515 kts 57°
2026-05-05 14:24 44.49595 2.92769 35935 ft 514 kts 57°
2026-05-05 14:24 44.53594 3.01092 35935 ft 514 kts 57°
2026-05-05 14:25 44.57566 3.09402 36123 ft 511 kts 57°
2026-05-05 14:25 44.59540 3.13538 36334 ft 508 kts 57°
2026-05-05 14:25 44.61479 3.17661 36503 ft 505 kts 58°
2026-05-05 14:26 44.63313 3.21860 36624 ft 504 kts 60°
2026-05-05 14:26 44.65042 3.26125 36754 ft 502 kts 62°
2026-05-05 14:26 44.66710 3.30437 36888 ft 501 kts 63°
2026-05-05 14:26 44.68355 3.34758 36899 ft 503 kts 63°
2026-05-05 14:27 44.71704 3.43425 36894 ft 506 kts 62°
2026-05-05 14:27 44.75151 3.52093 36885 ft 508 kts 62°
2026-05-05 14:28 44.78624 3.60755 36885 ft 508 kts 62°
2026-05-05 14:28 44.82063 3.69375 36883 ft 508 kts 62°
2026-05-05 14:29 44.85494 3.78077 36885 ft 508 kts 62°
2026-05-05 14:29 44.88911 3.86799 36856 ft 509 kts 62°
2026-05-05 14:30 44.92332 3.95525 36864 ft 509 kts 62°
2026-05-05 14:30 44.95760 4.04295 36886 ft 509 kts 62°
2026-05-05 14:31 44.99173 4.13042 36897 ft 508 kts 62°
2026-05-05 14:31 45.02415 4.21906 36877 ft 506 kts 71°
2026-05-05 14:32 45.03980 4.31516 36865 ft 501 kts 87°
2026-05-05 14:32 45.04723 4.41322 36864 ft 503 kts 87°
2026-05-05 14:33 45.05493 4.51161 36868 ft 503 kts 87°
2026-05-05 14:33 45.06249 4.61013 36855 ft 505 kts 87°
2026-05-05 14:34 45.06982 4.70898 36864 ft 506 kts 87°
2026-05-05 14:34 45.07717 4.80800 36871 ft 507 kts 87°
2026-05-05 14:35 45.08447 4.90714 36876 ft 507 kts 88°
2026-05-05 14:35 45.09156 5.00639 36869 ft 507 kts 88°
2026-05-05 14:36 45.09854 5.10576 36881 ft 508 kts 88°
2026-05-05 14:36 45.10085 5.20509 36888 ft 502 kts 98°
2026-05-05 14:37 45.09648 5.30378 36895 ft 503 kts 98°
2026-05-05 14:37 45.09205 5.40254 36884 ft 504 kts 98°
2026-05-05 14:38 45.08793 5.50111 36895 ft 505 kts 97°
2026-05-05 14:38 45.08432 5.60117 36898 ft 507 kts 97°
2026-05-05 14:39 45.08076 5.70014 36914 ft 507 kts 97°
2026-05-05 14:39 45.07684 5.79961 36889 ft 507 kts 98°
2026-05-05 14:40 45.07165 5.89897 36907 ft 506 kts 100°
2026-05-05 14:40 45.06454 5.99780 36900 ft 504 kts 101°
2026-05-05 14:41 45.05721 6.09653 36916 ft 506 kts 101°
2026-05-05 14:41 45.05027 6.19545 36904 ft 506 kts 100°
2026-05-05 14:42 45.04351 6.29450 36918 ft 506 kts 100°
2026-05-05 14:42 45.03669 6.39343 36930 ft 506 kts 100°
2026-05-05 14:43 45.02964 6.49227 36928 ft 506 kts 101°
2026-05-05 14:43 45.02243 6.59127 36931 ft 506 kts 101°
2026-05-05 14:44 45.01524 6.69000 36940 ft 505 kts 101°
2026-05-05 14:44 45.00806 6.78870 36960 ft 504 kts 101°
2026-05-05 14:45 45.00076 6.88702 36940 ft 495 kts 101°
2026-05-05 14:45 44.99733 6.93405 36962 ft 483 kts 101°
2026-05-05 14:45 44.99392 6.98095 36959 ft 478 kts 101°
2026-05-05 14:46 44.98694 7.07402 36971 ft 476 kts 101°
2026-05-05 14:46 44.98049 7.16713 36973 ft 479 kts 96°
2026-05-05 14:47 44.98084 7.26143 36734 ft 479 kts 94°
2026-05-05 14:47 44.98112 7.30861 36475 ft 480 kts 94°
2026-05-05 14:47 44.98138 7.35574 36216 ft 482 kts 94°
2026-05-05 14:48 44.98110 7.40302 35822 ft 480 kts 99°
2026-05-05 14:48 44.97687 7.44954 35121 ft 476 kts 106°
2026-05-05 14:48 44.97113 7.49545 34630 ft 473 kts 106°
2026-05-05 14:48 44.96543 7.54107 34090 ft 471 kts 107°
2026-05-05 14:49 44.95976 7.58653 33486 ft 470 kts 107°
2026-05-05 14:49 44.95387 7.63165 33042 ft 460 kts 111°
2026-05-05 14:49 44.94331 7.67265 32897 ft 432 kts 126°
2026-05-05 14:49 44.92740 7.70710 32300 ft 412 kts 140°
2026-05-05 14:50 44.90712 7.73677 31188 ft 433 kts 143°
2026-05-05 14:50 44.88513 7.76723 30021 ft 447 kts 144°
2026-05-05 14:50 44.86295 7.79782 28686 ft 445 kts 143°
2026-05-05 14:50 44.84095 7.82838 27420 ft 442 kts 143°
2026-05-05 14:51 44.81925 7.85876 26220 ft 441 kts 142°
2026-05-05 14:51 44.79751 7.88930 24803 ft 445 kts 142°
2026-05-05 14:51 44.77544 7.92018 23218 ft 449 kts 141°
2026-05-05 14:51 44.75320 7.95122 21335 ft 452 kts 141°
2026-05-05 14:52 44.73085 7.98238 19639 ft 452 kts 140°
2026-05-05 14:52 44.70882 8.01312 18386 ft 442 kts 140°
2026-05-05 14:52 44.68709 8.04339 16946 ft 435 kts 140°
2026-05-05 14:52 44.66579 8.07302 15550 ft 429 kts 139°
2026-05-05 14:53 44.64473 8.10228 14204 ft 423 kts 139°
2026-05-05 14:53 44.62395 8.13111 12904 ft 416 kts 139°
2026-05-05 14:53 44.60371 8.15915 12091 ft 398 kts 139°
2026-05-05 14:53 44.58505 8.18513 11850 ft 368 kts 139°
2026-05-05 14:54 44.56763 8.20942 11625 ft 342 kts 139°
2026-05-05 14:54 44.55137 8.23201 11469 ft 317 kts 140°
2026-05-05 14:54 44.53605 8.25319 11033 ft 304 kts 140°
2026-05-05 14:54 44.52107 8.27375 10434 ft 300 kts 140°
2026-05-05 14:55 44.50628 8.29400 9907 ft 294 kts 139°
2026-05-05 14:55 44.49186 8.31372 9450 ft 284 kts 139°
2026-05-05 14:55 44.47803 8.33266 9073 ft 272 kts 139°
2026-05-05 14:55 44.46455 8.35112 8699 ft 271 kts 139°
2026-05-05 14:56 44.45112 8.36953 8326 ft 270 kts 139°
2026-05-05 14:56 44.43770 8.38789 7926 ft 269 kts 138°
2026-05-05 14:56 44.42432 8.40623 7531 ft 269 kts 138°
2026-05-05 14:56 44.41098 8.42452 7129 ft 268 kts 138°
2026-05-05 14:57 44.39775 8.44263 6732 ft 266 kts 138°
2026-05-05 14:57 44.38449 8.46074 6323 ft 266 kts 138°
2026-05-05 14:57 44.37125 8.47881 5880 ft 266 kts 137°
2026-05-05 14:57 44.35804 8.49687 5461 ft 265 kts 136°
2026-05-05 14:58 44.34711 8.51756 4755 ft 268 kts 115°
2026-05-05 14:58 44.34334 8.54284 4136 ft 266 kts 89°
2026-05-05 14:58 44.34584 8.56749 3918 ft 246 kts 82°
2026-05-05 14:58 44.34854 8.59007 3803 ft 225 kts 82°
2026-05-05 14:59 44.35144 8.61080 3706 ft 212 kts 72°
2026-05-05 14:59 44.35767 8.62894 3494 ft 206 kts 61°
2026-05-05 14:59 44.36465 8.64579 3147 ft 194 kts 62°
2026-05-05 14:59 44.37120 8.66163 2837 ft 183 kts 62°
2026-05-05 15:00 44.37735 8.67646 2558 ft 169 kts 61°
2026-05-05 15:00 44.38118 8.68567 2405 ft 163 kts 61°
2026-05-05 15:00 44.38850 8.70348 2103 ft 153 kts 60°
2026-05-05 15:00 44.39372 8.71624 1875 ft 151 kts 60°
2026-05-05 15:01 44.39892 8.72887 1583 ft 153 kts 60°
2026-05-05 15:01 44.40409 8.74155 1381 ft 149 kts 60°
2026-05-05 15:01 44.40917 8.75409 1204 ft 148 kts 60°
2026-05-05 15:01 44.41408 8.76655 1000 ft 146 kts 61°
2026-05-05 15:02 44.41826 8.77948 788 ft 146 kts 71°
2026-05-05 15:02 44.42051 8.79328 550 ft 145 kts 87°
2026-05-05 15:02 44.41900 8.80703 312 ft 142 kts 111°
2026-05-05 15:02 44.41618 8.82044 122 ft 143 kts 107°
2026-05-05 15:03 44.41361 8.83325 26 ft 122 kts 105°
2026-05-05 15:03 44.41184 8.84241 23 ft 73 kts 105°
2026-05-05 15:03 44.41095 8.84694 18 ft 27 kts 105°
2026-05-05 15:03 44.41108 8.84854 16 ft 10 kts 33°
2026-05-05 15:04 44.41164 8.84892 15 ft 8 kts 17°
2026-05-05 15:04 44.41210 8.84910 15 ft 6 kts 15°
2026-05-05 15:04 44.41226 8.84916 16 ft 0 kts 15°
2026-05-05 15:04 44.41228 8.84917 16 ft 1 kts 15°
2026-05-05 15:05 44.41230 8.84918 16 ft 0 kts 15°
2026-05-05 15:05 44.41236 8.84920 16 ft 2 kts 15°
2026-05-05 15:05 44.41240 8.84921 17 ft 0 kts 15°
2026-05-05 15:06 44.41242 8.84922 17 ft 2 kts 15°
2026-05-05 15:06 44.41265 8.84931 19 ft 7 kts 15°
2026-05-05 15:06 44.41325 8.84955 18 ft 9 kts 22°
2026-05-05 15:07 44.41341 8.85024 18 ft 7 kts 101°
2026-05-05 15:07 44.41347 8.85081 20 ft 5 kts 37°
2026-05-05 15:07 44.41379 8.85095 18 ft 4 kts 16°
2026-05-05 15:07 44.41401 8.85104 18 ft 2 kts 15°